ContactaLinksHome
    
DADES METEOROLÒGIQUES DE LES ÚLTIMES 24 HORES
 

Taire  Temperatura de l'aire  (ºC)
HumitatR  Humitat relativa de l'aire (%)
Pluja  Litres de pluja per metre cuadrat caiguts en 10 minuts (l/m²)
VelVent  Velocitat mitjana del vent (m/s)
DirVent  Direcció del vent  (º)
RadSolar  Intensitat de Radiació solar (w/m²)
PressAtm  Pressió atmosfèrica (mb)
  ***Dades sense verificar
DataTaireHumitatRPlujaVelVentDirVentRadSolarPressAtm
22/10/2018 17:20:0018.6700,02.110501022
22/10/2018 17:10:0018.5710,02.79811022
22/10/2018 17:00:0018.6720,02.79941021
22/10/2018 16:50:0018.6720,03.294121021
22/10/2018 16:40:0018.6720,03.799221021
22/10/2018 16:30:0018.7710,03.891431021
22/10/2018 16:20:0018.8710,03.892681021
22/10/2018 16:10:0018.9710,03.495941021
22/10/2018 16:00:0019.0720,03.3861191021
22/10/2018 15:50:0019.1720,03.5831441021
22/10/2018 15:40:0019.1720,04.0731691021
22/10/2018 15:30:0019.1730,03.9841941021
22/10/2018 15:20:0019.0720,04.6972251021
22/10/2018 15:10:0019.2730,04.5852541021
22/10/2018 15:00:0019.2730,04.9832801021
22/10/2018 14:50:0019.2730,05.4803061021
22/10/2018 14:40:0019.2740,05.7863351021
22/10/2018 14:30:0019.4740,05.8793541021
22/10/2018 14:20:0019.4720,05.0924191020
22/10/2018 14:10:0019.6710,05.4923521020
22/10/2018 14:00:0019.6700,04.8983191020
22/10/2018 13:50:0019.9700,05.0883831020
22/10/2018 13:40:0019.9680,05.0825121020
22/10/2018 13:30:0019.7670,05.0885061020
22/10/2018 13:20:0019.7660,05.0913611020
22/10/2018 13:10:0019.8660,05.4916191020
22/10/2018 13:00:0019.7680,05.3936511020
22/10/2018 12:50:0019.7680,05.0986501021
22/10/2018 12:40:0019.7690,05.41006071021
22/10/2018 12:30:0019.7680,04.8965781021
22/10/2018 12:20:0019.8680,04.41035851021
22/10/2018 12:10:0019.8670,04.81095881021
22/10/2018 12:00:0019.9670,05.11095931021
22/10/2018 11:50:0020.1650,04.81165951021
22/10/2018 11:40:0020.1610,04.91155971021
22/10/2018 11:30:0020.2610,04.31135981021
22/10/2018 11:20:0020.2600,04.61065971021
22/10/2018 11:10:0020.3600,04.91025921021
22/10/2018 11:00:0020.2600,05.1975881021
22/10/2018 10:50:0020.2600,05.1995821021
22/10/2018 10:40:0020.1590,05.5955731021
22/10/2018 10:30:0020.2580,05.2955631021
22/10/2018 10:20:0020.2580,05.0935511021
22/10/2018 10:10:0020.4570,05.1895381021
22/10/2018 10:00:0020.3580,04.2775211021
22/10/2018 9:50:0020.3590,04.5885031021
22/10/2018 9:40:0021.1570,03.0914871021
22/10/2018 9:30:0020.8560,03.6844691021
22/10/2018 9:20:0020.8560,02.4974471021
22/10/2018 9:10:0020.0570,02.63404301020
22/10/2018 9:00:0019.7580,03.13254101020
22/10/2018 8:50:0019.4590,03.93353911020
22/10/2018 8:40:0019.9590,04.13343711020
22/10/2018 8:30:0019.9520,03.933501020
22/10/2018 8:20:0019.7520,04.53513271020
22/10/2018 8:10:0019.8520,03.622991020
22/10/2018 8:00:0019.9510,02.73602711020
22/10/2018 7:50:0020.0510,01.53482431020
22/10/2018 7:40:0019.9500,02.5142171020
22/10/2018 7:30:0019.6520,02.721881019
22/10/2018 7:20:0019.4530,03.3131581019
22/10/2018 7:10:0019.0570,02.9211291019
22/10/2018 7:00:0018.4620,02.121011019
22/10/2018 6:50:0017.9640,02.1339721019
22/10/2018 6:40:0017.5690,02.9331461019
22/10/2018 6:30:0017.2710,02.8331231019
22/10/2018 6:20:0017.1710,02.632561018
22/10/2018 6:10:0017.1720,03.232211018
22/10/2018 6:00:0017.1740,03.030801018
22/10/2018 5:50:0017.7750,03.131901018
22/10/2018 5:40:0018.8740,02.333101018
22/10/2018 5:30:0018.8710,01.032101018
22/10/2018 5:20:0018.9710,01.23001018
22/10/2018 5:10:0018.9720,01.62201018
22/10/2018 5:00:0019.0730,02.25101018
22/10/2018 4:50:0018.8740,01.65501018
22/10/2018 4:40:0018.8730,01.2701018
22/10/2018 4:30:0018.8730,01.85501018
22/10/2018 4:20:0018.7750,03.05701018
22/10/2018 4:10:0018.4750,01.53801018
22/10/2018 4:00:0018.2750,01.63401018
22/10/2018 3:50:0018.5730,00.91601018
22/10/2018 3:40:0018.5730,00.831401017
22/10/2018 3:30:0018.4730,01.035801017
22/10/2018 3:20:0018.7720,01.81401017
22/10/2018 3:10:0018.7740,03.04101017
22/10/2018 3:00:0018.5760,01.63101017
22/10/2018 2:50:0018.2760,03.132601017
22/10/2018 2:40:0018.1760,03.233201017
22/10/2018 2:30:0018.4760,02.332601017
22/10/2018 2:20:0018.7750,02.731901017
22/10/2018 2:10:0018.9730,02.832601017
22/10/2018 2:00:0018.9730,02.432501017
22/10/2018 1:50:0019.1720,03.231401017
22/10/2018 1:40:0019.3710,03.030501017
22/10/2018 1:30:0019.2730,02.131901017
22/10/2018 1:20:0018.9740,01.633701017
22/10/2018 1:10:0018.8740,01.832901017
22/10/2018 1:00:0018.9740,01.733001017
22/10/2018 0:50:0019.1730,02.034401017
22/10/2018 0:40:0019.2730,02.632201017
22/10/2018 0:30:0019.4720,02.932101017
22/10/2018 0:20:0019.4720,03.030601017
22/10/2018 0:10:0019.4720,03.029401017
22/10/2018 0:00:0019.4730,02.232501017
21/10/2018 23:50:0019.6720,01.735201017
21/10/2018 23:40:0019.7710,01.732101017
21/10/2018 23:30:0019.8710,01.831901017
21/10/2018 23:20:0020.0700,02.132401017
21/10/2018 23:10:0020.1700,01.435201017
21/10/2018 23:00:0020.1700,00.930301017
21/10/2018 22:50:0020.1700,01.128101017
21/10/2018 22:40:0020.1700,01.434001017
21/10/2018 22:30:0020.1690,02.132701017
21/10/2018 22:20:0020.1700,01.230901017
21/10/2018 22:10:0020.1690,01.434201017
21/10/2018 22:00:0020.2690,02.431101017
21/10/2018 21:50:0020.0700,02.327101017
21/10/2018 21:40:0019.9710,02.131301017
21/10/2018 21:30:0020.1720,02.626301017
21/10/2018 21:20:0020.1700,01.324701017
21/10/2018 21:10:0020.0710,01.524401017
21/10/2018 21:00:0020.1700,01.323201017
21/10/2018 20:50:0020.3690,02.124801017
21/10/2018 20:40:0020.4680,02.025801017
21/10/2018 20:30:0020.5680,01.828101017
21/10/2018 20:20:0020.6670,02.127801017
21/10/2018 20:10:0020.7660,02.130001017
21/10/2018 20:00:0020.8660,02.631801017
21/10/2018 19:50:0020.9660,03.028801017
21/10/2018 19:40:0021.1650,02.728301017
21/10/2018 19:30:0021.2640,01.929501017
21/10/2018 19:20:0021.4640,00.529301017
21/10/2018 19:10:0021.4630,00.524201017
21/10/2018 19:00:0021.5630,00.829701017
21/10/2018 18:50:0021.5630,01.123801017
21/10/2018 18:40:0021.5630,01.422501017
21/10/2018 18:30:0021.6630,01.524001017
21/10/2018 18:20:0021.6630,01.725101017
21/10/2018 18:10:0021.6630,01.724801017
21/10/2018 18:00:0021.7630,02.424801017
21/10/2018 17:50:0021.8630,02.825101017
21/10/2018 17:40:0022.0620,02.623901017
21/10/2018 17:30:0022.0620,02.424201017

ÚLTIMES FOTOS WEBCAM
Imatges del Pont
ÚLTIMES DADES

22/10/2018  
19:20h Local  (17:20 GMT)
 
 Velocitat mitjana del Vent
   2,1 m/s
 Direcció del Vent
   105º
 Humitat Relativa
   70 %
 Temperatura Aparent
   18,6 ºC
 Pluja Acumulada
   0,0 l/m²
      
 Temperatura de l'aigua    N/A
 Alçada d'ona    N/A
 Direcció d'ona    N/A
 Velocitat del corrent    N/A
 Direcció del corrent    N/A